Location: Wangen+im+Allg�u
(47.7098°N, 9.8383°E)
Time: 09:37:17
(UTC+01:00)

Envisat - Visible Passes

Search period start: 19 November 2017 00:00
Search period end: 29 November 2017 00:00
Orbit: 764 x 766 km, 98.2° (Epoch: 18 November)

Date Brightness Start Highest point End Pass type
(mag) Time Alt. Az. Time Alt. Az. Time Alt. Az.
19 Nov 5.3 19:49:53 14° N 19:49:53 14° N 19:50:39 10° N visible
20 Nov 5.1 19:12:50 14° N 19:12:50 14° N 19:13:37 10° N visible
21 Nov 5.1 18:35:46 12° NNE 18:35:46 12° NNE 18:36:10 10° NNE visible
21 Nov 5.6 20:15:59 11° NNW 20:15:59 11° NNW 20:16:15 10° NNW visible
22 Nov 5.3 19:38:55 13° N 19:38:55 13° N 19:39:28 10° N visible
23 Nov 5.2 19:01:51 12° N 19:01:51 12° N 19:02:21 10° N visible
24 Nov 5.6 20:05:00 11° NNW 20:05:00 11° NNW 20:05:09 10° NNW visible
25 Nov 5.3 19:27:55 12° N 19:27:55 12° N 19:28:17 10° N visible
26 Nov 5.2 18:50:51 11° N 18:50:51 11° N 18:51:02 10° N visible
27 Nov 5.6 19:53:58 10° NNW 19:53:58 10° NNW 19:54:01 10° NNW visible
28 Nov 5.4 19:16:53 11° N 19:16:53 11° N 19:17:02 10° N visible
